Погода в Уайт Плейнс

США     41°01′25″N   73°45′48″W
темп.,
°C
ветер,
м/с
пор.,
м/с
влажн.,
%
обл.,
%
осадки,
мм/ч
давл.,
гПа
погр.,
м
17 октября, вс
вс1723:00+15зсз4887100 5.6 1007789
02:00+13сз6127753 5.8 1008693
05:00+12зсз512750 0.0 1008538
08:00+11зсз511751 0.0 1009534
11:00+16зсз585245 0.0 10091210
14:00+17зсз574296 0.1 10082181
17:00+15зсз685023 0.1 10081444
20:00+13зсз5125967 0.1 10101257
18 октября, пн
пн1823:00+11зсз511685 0.0 10111068
02:00+11зсз4106981 0.0 1011703
05:00+10зсз497288 0.0 1010536
08:00+10з49715 0.0 1011649
11:00+14зсз585389 0.0 10111559
14:00+13сз695791 0.0 10101450
17:00+13сз6105045 0.0 10111808
20:00+10сз611565 0.1 10141409
19 октября, вт
вт1923:00+9зсз510598 0.0 10151030
02:00+9зсз5116721 0.0 10161341
05:00+8зсз410675 0.0 10161114
08:00+8зсз512630 0.0 1017709
11:00+13зсз610490 0.0 1017944
14:00+17зсз711355 0.0 10141324
17:00+19з614455 0.0 10131591
20:00+17з614604 0.0 10141210
20 октября, ср
ср2023:00+15з5136511 0.0 1014886
02:00+14з5146867 0.0 1014832
05:00+14зсз5147015 0.0 1015727
08:00+14зсз312746 0.0 1016627
11:00+18зсз5105799 0.0 1017837
14:00+22зсз58440 0.0 10161256
17:00+22зсз47440 0.0 10151265
20:00+19з38565 0.0 1017315
21 октября, чт
чт2123:00+17з37645 0.0 1017264
02:00+16зюз23650 0.0 1017107
05:00+15зюз22670 0.0 101768
08:00+15юз38660 0.0 1017284
11:00+20зюз510425 0.0 1017714
14:00+23юз58325 0.0 10141283
17:00+23ююз483771 0.0 10121299
20:00+21ю3743100 0.0 1012387